Tracking 18987 objects as of 25-Feb-2018
HD Live streaming from Space Station
objects crossing your sky now

NOAA 16 DEB

Track NOAA 16 DEB now!
10-day predictions


NORAD ID: 41197
Int'l Code: 2000-055DA
Perigee: 849.5 km
Apogee: 920.0 km
Inclination: 98.8 °
Period: 102.5 minutes
Semi major axis: 7255 km
RCS: Unknown
Launch date: September 21, 2000
Source: United States (US)
Launch site: AIR FORCE WESTERN TEST RANGE (AFWTR)

Note: This is SATELLITE DEBRIS
aabbcc
Your satellite tracking list
Your tracking list is empty




NASA's NSSDC Master Catalog

Two Line Element Set (TLE):
1 41197U 00055DA  18055.36073036  .00001433  00000-0  91147-3 0  9995
2 41197  98.7700 108.1945 0048641 140.2523 220.2225 14.04688169112357
Source of the keplerian elements: AFSPC